Meteo Giornale » Osservazioni meteo Stati Uniti (USA) » Lebanon

ore: 23:14 - Osservazioni Meteo Lebanon
Lat. 43° 37' N Lon. 72° 18' W Alt. 182 metri s.l.m.

coperto

17 °C

Coperto

Temp. 24 Ore

14 °C

21 °C

Nord

0 Km/h

Dew point 17 °C

Umidità 100 %

Visibilità  14 Km

Il sole sorge alle ore 06:13

Il sole tramonta alle ore 19:25

Data e Ora Cielo e Fenomeni T °C DP °C Um. % Pres. hPa Vis. km Vento km/h
Oggi h: 23:14 coperto Coperto 17 17 100 1019 14 N 0
Oggi h: 22:53 coperto Coperto 17 17 100 1019 14 N 0
Oggi h: 22:38 coperto Coperto 17 17 100 1019 13 N 0
Oggi h: 22:19 coperto Coperto 17 17 100 1019 14 N 0
Oggi h: 22:07 coperto Coperto 17 17 100 1019 14 N 0
Oggi h: 21:53 coperto Coperto 17 17 100 1019 14 N 0
Oggi h: 21:42 coperto Coperto 18 17 93 1019 14 N 0
Oggi h: 21:29 coperto Coperto 18 17 93 1019 11 N 0
Oggi h: 21:15 foschia Foschia 18 17 93 1019 8 N 0
Oggi h: 20:53 coperto Coperto 17 17 100 1019 11 N 0
Oggi h: 20:21 coperto Coperto 18 17 93 1019 13 N 0
Oggi h: 19:53 coperto Coperto 18 17 93 1018 13 N 0
Oggi h: 18:53 coperto Coperto 19 17 88 1018 10 S 7.4
Oggi h: 18:25 coperto Coperto 19 17 88 1018 10 N 5.5
Oggi h: 17:53 coperto Coperto 19 17 88 1018 10 N 0
Oggi h: 16:53 coperto Coperto 21 17 77 1017 10 S 7.4
Oggi h: 15:53 coperto Coperto 21 16 73 1017 10 O 7.4
Oggi h: 15:21 coperto Coperto 21 16 73 1017 10 N 5.5
Oggi h: 14:53 coperto Coperto 20 16 77 1017 10 N 0
Oggi h: 13:53 coperto Coperto 19 15 77 1018 10 N 5.5
Oggi h: 12:53 coperto Coperto 18 16 88 1017 10 N 0
Oggi h: 11:53 coperto Coperto 17 16 93 1018 10 N 0
Oggi h: 10:53 coperto_pioggia Pioggia 16 15 93 1018 10 N 7.4
Oggi h: 09:53 coperto_pioggia Pioggia 15 14 93 1018 14 N 5.5
Oggi h: 08:53 coperto_pioggia Pioggia 14 14 100 1018 11 N 0
Oggi h: 08:26 coperto_pioggia Pioggia Foschia 14 14 100 1018 8 N 0
Oggi h: 08:02 coperto_pioggia Pioggia Foschia 14 14 100 1018 2 N 0
Oggi h: 07:53 coperto_pioggia Pioggia Foschia 14 14 100 1019 5 N 5.5
Oggi h: 06:53 coperto_pioggia Pioggia Foschia 14 13 93 1018 10 N 0
Oggi h: 05:53 coperto Coperto 15 13 87 1017 10 N 0
Oggi h: 04:53 coperto Coperto 15 13 87 1017 10 N 0
Oggi h: 03:53 coperto Coperto 15 13 87 1018 10 N/NO 7.4
Oggi h: 02:53 coperto Coperto 14 13 93 1018 10 N 0
Oggi h: 01:53 coperto Coperto 14 13 93 1018 10 N 5.5
Oggi h: 00:53 coperto Coperto 14 13 93 1018 10 N 0
Ieri h: 23:53 sereno Sereno 14 13 93 1018 10 N 0